Live-Position
3D-Globus wird geladen...
Über Starlink 1338
Group: 3 satellites
Beschreibung wird geladen...
Nächste Überflüge
Passes for default location (London). Set your location on the main map for personalized predictions.
Höhenverlauf
Loading altitude history...
No altitude history available
Zweizeiliger Elementsatz
1 45532U 20025B 26123.87354438 .00047635 00000-0 48583-3 0 9990
2 45532 53.0441 176.0366 0004045 2.7768 357.3268 15.64626765334013
Epoch: 3. Mai 2026 •
Age: 27 hours
Aktueller Status
Höhe 378.9 km
Geschwindigkeit 7.69 km/s
Subsatellitenpunkt 39.38°N,
96.32°E
Startdatum 22. Apr. 2020
Alter 6 years
Typ internet
Startgruppe
Falcon 9 •
Launch 6 •
24 satellites
Starlink 1329
45531
Starlink 1350 45535
Starlink 1362 45538
Starlink 1368 45540
Starlink 1371 45542
Starlink 1372 45543
Starlink 1373 45544
Starlink 1327 45555
Starlink 1356 45564
Starlink 1357 45565
Starlink 1361 45567
Starlink 1363 45568
Starlink 1366 45569
Starlink 1376 45570
Starlink 1320 45572
Starlink 1321 45573
Starlink 1331 45578
Starlink 1333 45580
Starlink 1335 45581
Starlink 1337 45582
...and 3 more
Technische Details
Klassifizierung Payload
Masse 260.00 kg
Trockenmasse 248.00 kg
Gesamtmasse 260.00 kg
Länge 0.20 m
Durchmesser 2.80 m
Spannweite 9.00 m
Form Box + pan
Hersteller SPXS
Bus-Typ Starlink
Phasenstatus In Orbit
Besitzer/Staat SPXS/US
Most Searched
Loading...